This is the latest recevied weather packets stored in our database for station/object DG1ROH. If no packets are shown the sender has not sent any weather packets the latest 10 day(s).
| Time | Temp. | Humidity | Pressure | Rain* | Wind** | Luminosity | Snow |
|---|---|---|---|---|---|---|---|
| 1778331900 | 15.56° C | 57% | 1019.9 hPa | 0 mm | - | 220 W/m² | - |
| 1778331779 | 15.56° C | 57% | 1019.8 hPa | 0 mm | - | 221 W/m² | - |
| 1778331659 | 15.56° C | 57% | 1019.8 hPa | 0 mm | - | 225 W/m² | - |
| 1778331539 | 15.56° C | 58% | 1019.9 hPa | 0 mm | - | 227 W/m² | - |
| 1778331418 | 15.56° C | 61% | 1020 hPa | 0 mm | - | 229 W/m² | - |
| 1778331297 | 15.56° C | 59% | 1020 hPa | 0 mm | - | 230 W/m² | - |
| 1778331175 | 15.56° C | 63% | 1020 hPa | 0 mm | - | 227 W/m² | - |
| 1778331055 | 15.56° C | 60% | 1020.1 hPa | 0 mm | - | 225 W/m² | - |
| 1778330933 | 15.56° C | 58% | 1020.2 hPa | 0 mm | - | 223 W/m² | - |
| 1778330813 | 15.56° C | 59% | 1020.1 hPa | 0 mm | - | 214 W/m² | - |
| 1778330693 | 15.56° C | 62% | 1020.2 hPa | 0 mm | - | 199 W/m² | - |
| 1778330571 | 15.56° C | 62% | 1020.2 hPa | 0 mm | - | 188 W/m² | - |
| 1778330451 | 15.56° C | 63% | 1020.3 hPa | 0 mm | - | 179 W/m² | - |
| 1778330330 | 15.56° C | 61% | 1020.2 hPa | 0 mm | - | 165 W/m² | - |
| 1778330210 | 15° C | 61% | 1020.3 hPa | 0 mm | - | 155 W/m² | - |
| 1778330094 | 15° C | 60% | 1020.3 hPa | 0 mm | - | 144 W/m² | - |
| 1778329973 | 15° C | 59% | 1020.3 hPa | 0 mm | - | 134 W/m² | - |
| 1778329853 | 15° C | 60% | 1020.3 hPa | 0 mm | - | 128 W/m² | - |
| 1778329731 | 15° C | 59% | 1020.3 hPa | 0 mm | - | 125 W/m² | - |
| 1778329609 | 15° C | 63% | 1020.3 hPa | 0 mm | - | 125 W/m² | - |
| 1778329484 | 15° C | 61% | 1020.3 hPa | 0 mm | - | 127 W/m² | - |
| 1778329362 | 15° C | 59% | 1020.2 hPa | 0 mm | - | 128 W/m² | - |
| 1778329241 | 15.56° C | 61% | 1020.3 hPa | 0 mm | - | 128 W/m² | - |
| 1778329120 | 15.56° C | 60% | 1020.2 hPa | 0 mm | - | 128 W/m² | - |
| 1778328998 | 15.56° C | 59% | 1020.3 hPa | 0 mm | - | 134 W/m² | - |
* Rain latest hour (hover to see other rain measurements)
** Current wind speed in m/s (hover to see current wind gust speed)